Vertical_Velocity
2 2 -1 -2 -4 0 -1 -1 -1 1 0 2 1 -2 1 0 -1 -2 6 0 5 2 2 -2 -2 -0 2 2 3 2 3 3 -2 2 -3 -2 -2 2 1 1 1 2 -0
1 1 0 4 1 -1 -0 1 2 0 -0 2 2 1 -1 0 -1 -2 -1 0 1 -1 1 0 -3 -3 0 -1 -2 -0 -2 -0 4 -2 -1 2 2 -3 -1 -0 -1 2 1
-0 2 1 -1 -0 -3 -5 1 2 -0 -2 -0 0 0 2 2 1 -1 3 -0 1 2 -0 0 3 3 1 0 -2 -1 0 0 1 -1 -3 -1 -0 0 -1 -0 -0 -1 -1
2 3 0 -2 1 4 0 -2 1 2 -1 -2 5 6 2 -1 -1 1 -5 -0 -3 -1 0 -0 1 1 1 2 -0 -2 -2 -2 -1 -1 -0 -0 3 1 2 3 -1 1 1
5 5 4 5 5 4 1 -1 2 2 1 -0 -2 -6 2 5 6 3 3 4 -0 -1 1 1 2 -2 -0 3 3 6 2 1 1 2 -1 -0 2 2 0 0 -0 -0 -3
-1 1 4 -2 3 3 0 3 -2 -4 -4 -1 -1 -1 2 -3 2 0 1 3 4 1 1 -1 -0 -1 -0 1 -0 -0 1 0 2 1 -0 -0 -0 1 2 2 -2 2 1
-1 -3 -1 2 -4 -0 2 3 2 -2 2 -3 -2 2 -3 6 -2 2 1 0 3 2 0 -1 -2 -2 1 1 1 0 -2 -2 -0 0 2 1 -0 -1 -1 1 1 2 1
1 -0 3 2 4 1 2 -3 0 -1 -1 1 -3 1 -1 -3 -2 2 5 3 -1 2 2 -0 2 2 1 2 5 0 0 1 -0 -0 2 1 -0 -0 -1 -0 1 2 2
1 0 0 -2 -0 -1 1 4 8 0 0 4 3 -3 -2 -2 -2 1 2 1 2 2 1 3 1 1 2 2 -2 1 0 -1 -0 1 1 -2 -2 -2 -3 -1 -3 0 1
-3 3 -16 -0 -1 1 3 1 -0 7 1 -1 -2 -1 -2 -3 -1 -1 4 1 -3 -2 1 0 -1 -2 -1 -1 0 2 2 -0 -0 -0 -3 -3 -1 0 -1 1 3 3 2
1 -19 12 -3 3 1 -4 -2 -0 3 5 -3 -3 -1 -2 1 -3 2 -3 -3 -2 -2 2 1 1 -0 0 -2 2 1 0 0 0 2 1 1 -0 -1 0 2 -7 -4 -2
2 2 -10 -8 -1 4 5 4 -1 4 3 2 -5 -3 -1 5 -2 -0 -3 -5 -1 -2 5 2 1 -2 0 1 -1 -1 -1 -3 -2 -0 -1 -1 -0 -0 -2 -1 -2 -3 -1
-3 1 -0 1 8 1 4 6 3 5 3 2 -0 3 -7 -10 13 0 -7 -2 -1 -5 4 0 -1 4 0 0 2 3 4 2 2 1 2 1 -1 -1 -3 -1 -2 -1 -0
3 -3 0 5 -0 -1 5 5 3 4 1 -2 1 1 -8 -2 -1 -7 25 -21 -12 -1 -1 -1 -1 1 -0 -3 -0 -1 2 3 2 1 -1 -1 -2 2 0 -1 0 -0 3
2 -1 -2 -3 2 -2 -1 -4 3 -4 3 -4 -2 -4 -3 -8 -7 0 -1 4 -3 -7 -1 -0 0 1 -1 1 3 -1 1 -0 0 1 0 1 0 2 1 1 -1 -2 -1
3 2 -2 -4 -2 -1 4 -0 2 5 3 3 -0 1 -1 0 5 4 2 -2 1 7 0 3 2 2 2 -0 -1 2 2 0 1 -1 -2 -3 -3 0 -1 -2 -2 -4 -1
4 3 1 -4 -2 -1 -4 -1 -1 0 1 1 1 3 -2 2 -2 -6 3 1 -3 -6 -2 -3 -1 2 1 1 -2 -2 -0 -3 -2 -3 -2 -2 -4 -3 -0 -2 -1 -1 0
1 1 1 3 3 5 2 2 0 -2 -1 -1 0 0 0 3 1 0 3 -2 0 3 2 -1 1 -1 -3 1 -1 1 2 -0 -0 -3 2 -0 -2 -2 -2 -1 -1 -3 -2
-0 1 -1 0 -1 2 -1 1 1 -1 2 2 1 2 1 2 0 -0 -0 -1 -0 1 -1 -1 -3 -2 1 1 -3 -2 1 -2 -1 -0 0 -2 -2 2 -2 -2 -3 -5 -4
0 -1 -3 -1 0 1 -1 -3 -2 5 -4 2 2 -0 -2 -1 -1 0 -2 2 2 2 -0 -2 -3 -0 -2 -4 -5 -3 -3 1 -1 -0 -1 -2 -4 -3 0 1 -1 -1 -3
-4 0 1 -2 2 2 -0 -2 1 5 -3 -3 3 -1 3 2 1 1 -5 -2 -0 0 -0 -2 -2 -2 2 1 1 -5 -5 -4 -6 -4 -1 -3 -4 2 -3 -2 -4 -2 -2
-1 -0 0 1 -1 -1 2 2 0 -4 1 1 -2 1 2 1 -0 0 -1 1 -1 -1 -3 -0 -0 3 -1 0 -3 -5 1 3 2 0 -1 -0 -1 -1 -0 -1 1 2 -1
1 0 -2 -1 0 -4 1 2 -2 -1 0 1 2 -1 -1 0 3 3 0 -1 2 1 -2 -5 -0 1 -3 -4 -1 2 3 4 5 1 1 -3 2 2 2 -3 -0 -5 -2
1 -0 0 1 0 -1 -1 -0 0 -3 -3 -2 2 3 -3 -2 -1 1 2 2 -3 -3 -3 3 1 -1 -1 1 -1 0 -1 -1 -1 -1 3 1 7 0 4 4 -4 6 -7
1 0 -0 0 -1 0 -1 1 2 1 -3 -2 -1 -2 -2 -3 -1 -1 2 -1 -2 -1 3 2 4 2 3 2 0 2 -0 -2 -0 -1 1 3 3 3 4 -0 -1 -1 -2
3 1 2 -0 -1 -1 0 1 -0 -3 -3 -4 -2 -3 -3 -2 1 0 -0 1 1 1 4 4 1 4 3 -1 1 -1 1 3 2 2 -0 1 1 1 1 1 0 1 -2
Height
1547 1550 1553 1557 1560 1563 1565 1568 1570 1572 1575 1576 1578 1579 1580 1580 1580 1580 1581 1580 1581 1581 1580 1579 1578 1578 1578 1577 1577 1577 1577 1577 1578 1577 1574 1574 1573 1572 1571 1570 1569 1568 1567
1541 1545 1548 1552 1555 1558 1560 1563 1566 1568 1570 1572 1574 1575 1576 1577 1578 1578 1578 1578 1578 1577 1578 1577 1576 1576 1575 1575 1575 1575 1575 1575 1574 1573 1572 1571 1570 1569 1569 1568 1567 1566 1565
1534 1538 1542 1546 1549 1552 1555 1558 1561 1563 1566 1568 1570 1571 1572 1572 1573 1574 1574 1574 1575 1574 1574 1574 1574 1573 1573 1573 1573 1573 1572 1572 1571 1571 1570 1569 1567 1566 1565 1564 1564 1563 1562
1528 1531 1534 1538 1542 1546 1549 1552 1555 1558 1561 1563 1565 1566 1567 1568 1569 1570 1570 1571 1572 1571 1571 1571 1571 1571 1571 1571 1571 1571 1570 1569 1568 1567 1567 1566 1564 1562 1562 1561 1560 1559 1559
1522 1525 1528 1532 1536 1540 1543 1547 1550 1552 1554 1557 1559 1561 1563 1565 1566 1567 1567 1568 1568 1569 1568 1568 1568 1568 1569 1568 1568 1567 1567 1566 1565 1564 1563 1562 1562 1561 1559 1558 1558 1557 1556
1517 1520 1523 1525 1529 1533 1537 1540 1543 1546 1548 1550 1553 1556 1558 1560 1562 1563 1563 1564 1564 1564 1564 1564 1564 1564 1564 1564 1563 1563 1563 1561 1560 1559 1559 1558 1557 1556 1556 1554 1554 1553 1553
1513 1515 1518 1520 1523 1526 1529 1533 1536 1539 1541 1543 1546 1549 1551 1554 1556 1558 1559 1560 1561 1561 1560 1560 1559 1560 1559 1559 1559 1558 1557 1557 1556 1555 1554 1554 1553 1552 1552 1551 1550 1550 1549
1510 1512 1514 1514 1516 1519 1522 1525 1528 1532 1535 1537 1540 1543 1544 1547 1550 1552 1553 1555 1556 1556 1556 1556 1556 1555 1555 1555 1554 1553 1552 1551 1551 1551 1550 1550 1549 1549 1549 1548 1547 1547 1546
1504 1507 1508 1511 1512 1513 1516 1519 1522 1524 1528 1531 1534 1537 1539 1542 1545 1547 1548 1549 1550 1551 1551 1551 1550 1550 1550 1550 1549 1549 1548 1547 1547 1547 1547 1546 1546 1546 1545 1545 1544 1545 1544
1503 1503 1505 1506 1507 1509 1511 1514 1516 1518 1521 1523 1527 1530 1534 1537 1540 1541 1543 1545 1546 1546 1546 1546 1546 1546 1546 1547 1546 1546 1545 1544 1544 1545 1544 1544 1544 1544 1544 1543 1543 1542 1542
1501 1499 1501 1497 1501 1503 1504 1507 1509 1510 1512 1515 1520 1525 1529 1532 1534 1537 1539 1541 1543 1543 1543 1542 1543 1543 1543 1544 1545 1544 1544 1544 1545 1545 1545 1545 1544 1544 1543 1542 1542 1542 1543
1497 1496 1493 1496 1497 1498 1498 1500 1502 1503 1506 1509 1515 1521 1525 1528 1531 1533 1535 1538 1540 1540 1541 1541 1540 1541 1541 1541 1542 1544 1544 1544 1544 1545 1544 1545 1545 1544 1544 1543 1542 1542 1542
1496 1497 1496 1495 1494 1494 1496 1497 1498 1500 1501 1505 1512 1518 1521 1526 1525 1530 1532 1535 1534 1539 1541 1540 1541 1541 1540 1542 1543 1544 1544 1543 1544 1544 1544 1544 1545 1545 1544 1545 1544 1543 1543
1495 1496 1498 1497 1497 1499 1498 1498 1499 1500 1502 1506 1511 1515 1521 1525 1526 1529 1529 1528 1534 1539 1540 1539 1542 1542 1540 1542 1543 1544 1545 1544 1543 1543 1544 1545 1546 1545 1544 1545 1545 1545 1547
1493 1494 1496 1498 1498 1500 1501 1502 1504 1506 1509 1510 1513 1517 1521 1522 1527 1529 1529 1531 1535 1538 1540 1541 1542 1542 1541 1543 1542 1543 1544 1544 1544 1545 1545 1547 1546 1546 1545 1544 1543 1544 1546
1493 1494 1495 1498 1500 1501 1501 1503 1505 1508 1510 1512 1515 1518 1521 1525 1527 1528 1529 1531 1534 1536 1538 1541 1541 1540 1539 1540 1542 1544 1544 1545 1545 1545 1546 1547 1547 1547 1546 1545 1544 1545 1546
1493 1494 1496 1497 1500 1502 1502 1504 1506 1509 1511 1514 1517 1518 1521 1523 1525 1527 1530 1531 1534 1537 1539 1539 1542 1542 1541 1541 1542 1544 1544 1545 1546 1547 1546 1546 1546 1548 1548 1547 1546 1546 1545
1495 1496 1498 1500 1501 1502 1503 1505 1507 1510 1513 1515 1517 1519 1521 1523 1526 1530 1532 1535 1537 1537 1538 1540 1541 1541 1542 1543 1544 1546 1546 1546 1548 1549 1549 1547 1547 1548 1549 1549 1548 1547 1547
1494 1495 1498 1499 1500 1502 1504 1507 1508 1511 1513 1516 1518 1521 1523 1526 1529 1532 1534 1535 1537 1536 1538 1539 1542 1543 1542 1542 1544 1547 1548 1548 1550 1551 1551 1550 1551 1550 1548 1548 1546 1546 1548
1493 1495 1498 1500 1501 1503 1505 1507 1511 1512 1515 1519 1520 1523 1525 1528 1530 1533 1534 1537 1537 1536 1536 1538 1541 1543 1542 1542 1545 1545 1549 1549 1549 1551 1551 1551 1552 1552 1551 1549 1548 1548 1549
1496 1498 1499 1502 1503 1505 1506 1510 1513 1514 1517 1522 1523 1526 1528 1529 1533 1533 1534 1536 1537 1537 1537 1539 1540 1542 1542 1542 1542 1544 1548 1549 1549 1550 1550 1550 1552 1552 1551 1549 1549 1548 1549
1498 1500 1502 1503 1505 1509 1510 1511 1513 1517 1521 1521 1525 1527 1529 1530 1533 1534 1536 1537 1537 1538 1539 1540 1541 1542 1541 1542 1543 1546 1547 1548 1548 1548 1550 1550 1550 1550 1548 1548 1547 1547 1545
1498 1500 1503 1505 1507 1510 1512 1512 1515 1519 1522 1523 1525 1527 1529 1532 1533 1533 1535 1537 1537 1537 1538 1540 1542 1541 1541 1542 1543 1545 1545 1546 1546 1546 1548 1549 1549 1547 1544 1545 1544 1544 1544
1499 1501 1503 1505 1506 1509 1512 1514 1516 1518 1522 1524 1525 1526 1528 1530 1532 1533 1534 1534 1535 1536 1538 1539 1539 1539 1540 1540 1541 1541 1541 1540 1541 1541 1542 1544 1542 1541 1541 1540 1540 1540 1539
1498 1500 1502 1504 1506 1509 1511 1513 1515 1516 1519 1522 1524 1525 1527 1529 1530 1531 1531 1532 1533 1535 1535 1536 1535 1536 1536 1536 1537 1536 1535 1534 1534 1535 1535 1536 1536 1536 1536 1536 1536 1536 1536
1497 1499 1501 1503 1506 1508 1510 1511 1513 1515 1517 1519 1521 1523 1524 1525 1527 1527 1528 1530 1530 1531 1532 1530 1531 1532 1532 1533 1532 1530 1528 1526 1524 1524 1525 1528 1531 1531 1532 1533 1533 1533 1532